Modesto, CA

2:36 AM PDT on April 29, 2017 (GMT -0700)
Modesto City-County-Sham

Weather History for KMOD - August, 2013

Change the Weather History Date:

Sunday, August 4, 2013

  Actual Average Record
Temperature  
Mean Temperature 76 °F -  
Max Temperature 91 °F 95 °F 108 °F (1998)
Min Temperature 60 °F 63 °F 51 °F (1934)
Degree Days  
Heating Degree Days 0 0  
Month to date heating degree days 0 0  
Since 1 June heating degree days 0 3  
Since 1 July heating degree days 0 0  
Cooling Degree Days 11 14  
Month to date cooling degree days 40 56  
Year to date cooling degree days 1120 991  
Since 1 June cooling degree days 874 792  
Growing Degree Days 25 (Base 50)    
Moisture  
Dew Point 52 °F    
Average Humidity 52    
Maximum Humidity 78    
Minimum Humidity 26    
Precipitation  
Precipitation 0.00 in 0.00 in 0.00 in (2017)
Month to date precipitation 0.00 0.00  
Year to date precipitation 3.21 8.75  
Since 1 July precipitation 0.00  
Snow  
Snow 0.00 in - - ()
Month to date snowfall 0.0  
Since 1 June snowfall 0.0  
Since 1 July snowfall 0.0  
Snow Depth -    
Sea Level Pressure  
Sea Level Pressure 29.91 in    
Wind  
Wind Speed 8 mph (NNW)    
Max Wind Speed 13 mph    
Max Gust Speed 17 mph    
Visibility 10 miles    
Events      
T = Trace of Precipitation, MM = Missing Value Source: NWS Daily Summary

Daily Weather History Graph

Daily Weather History Graph

Search for Another Location

Airport or City:

Trip Planner

Search our weather history database for the weather conditions in past years. The results will help you decide how hot, cold, wet, or windy it might be!

Date:

Astronomy

Aug. 04, 2013 Rise Set
Actual Time 6:10 AM PDT 8:08 PM PDT
Civil Twilight 5:41 AM PDT 8:37 PM PDT
Nautical Twilight 5:06 AM PDT 9:12 PM PDT
Astronomical Twilight 4:28 AM PDT 9:49 PM PDT
Moon 4:16 AM PDT (8/4) 6:35 PM PDT (8/4)
Length of Visible Light 14h 55m
Length of Day
13h 58m
Waning Crescent, 4% of the Moon is Illuminated
Aug 4
Waning Crescent
Aug 6
New
Aug 14
First Quarter
Aug 20
Full
Aug 28
Last Quarter

Hourly Weather History & Observations

Time (PDT) Temp. Heat Index Dew Point Humidity Pressure Visibility Wind Dir Wind Speed Gust Speed Precip Events Conditions
12:53 AM 69.1 °F - 53.1 °F 57% 29.89 in 10.0 mi North 6.9 mph - N/A   Clear
1:53 AM 66.9 °F - 53.1 °F 61% 29.89 in 10.0 mi NNW 5.8 mph - N/A   Clear
2:53 AM 66.9 °F - 53.1 °F 61% 29.89 in 10.0 mi WNW 3.5 mph - N/A   Clear
3:53 AM 64.0 °F - 52.0 °F 65% 29.89 in 10.0 mi NW 6.9 mph - N/A   Clear
4:53 AM 62.1 °F - 53.1 °F 72% 29.91 in 10.0 mi NNW 9.2 mph - N/A   Clear
5:53 AM 60.1 °F - 53.1 °F 78% 29.91 in 10.0 mi NW 8.1 mph - N/A   Clear
6:53 AM 61.0 °F - 53.1 °F 75% 29.93 in 10.0 mi NNW 8.1 mph - N/A   Clear
7:53 AM 63.0 °F - 53.1 °F 70% 29.94 in 10.0 mi NNW 12.7 mph - N/A   Clear
8:53 AM 66.9 °F - 53.1 °F 61% 29.95 in 10.0 mi NW 10.4 mph - N/A   Clear
9:53 AM 71.1 °F - 54.0 °F 55% 29.95 in 10.0 mi WNW 9.2 mph - N/A   Clear
10:53 AM 73.0 °F - 53.1 °F 49% 29.95 in 10.0 mi NW 8.1 mph - N/A   Clear
11:53 AM 78.1 °F - 53.1 °F 42% 29.94 in 10.0 mi NW 10.4 mph - N/A   Clear
12:53 PM 82.0 °F 81.3 °F 54.0 °F 38% 29.93 in 9.0 mi NNW 9.2 mph - N/A   Clear
1:53 PM 86.0 °F - 52.0 °F 31% 29.91 in 10.0 mi NNW 10.4 mph - N/A   Clear
2:53 PM 87.1 °F 84.9 °F 53.1 °F 31% 29.90 in 10.0 mi North 8.1 mph 16.1 mph N/A   Clear
3:53 PM 89.1 °F - 51.1 °F 27% 29.88 in 10.0 mi North 6.9 mph - N/A   Clear
4:53 PM 90.0 °F - 50.0 °F 25% 29.87 in 10.0 mi North 11.5 mph - N/A   Clear
5:53 PM 89.1 °F - 48.9 °F 25% 29.87 in 10.0 mi NW 10.4 mph - N/A   Clear
6:53 PM 87.1 °F - 50.0 °F 28% 29.87 in 10.0 mi NW 11.5 mph - N/A   Clear
7:53 PM 82.9 °F - 50.0 °F 32% 29.88 in 10.0 mi NW 10.4 mph - N/A   Clear
8:53 PM 79.0 °F - 53.1 °F 40% 29.90 in 10.0 mi NNW 9.2 mph - N/A   Clear
9:53 PM 73.9 °F - 53.1 °F 48% 29.92 in 10.0 mi NNW 11.5 mph - N/A   Clear
10:53 PM 69.1 °F - 53.1 °F 57% 29.93 in 10.0 mi NNW 15.0 mph - N/A   Clear
11:53 PM 66.0 °F - 54.0 °F 65% 29.93 in 10.0 mi NNW 9.2 mph - N/A   Clear